QPF
0.00 0.00 0.00 0.00 0.00 0.00 0.00 0.00 0.00 0.00 0.00 0.00 0.00 0.00 0.01 0.01 0.02 0.02 0.01 0.02 0.02 0.05 0.04 0.03 0.03 0.03 0.03 0.04 0.04 0.04 0.04 0.03 0.03 0.03 0.04 0.03 0.04 0.05 0.07 0.09 0.08 0.07 0.08 0.08
0.00 0.00 0.00 0.00 0.00 0.00 0.00 0.00 0.00 0.00 0.00 0.00 0.00 0.01 0.01 0.02 0.02 0.02 0.02 0.02 0.02 0.04 0.04 0.03 0.03 0.02 0.03 0.02 0.02 0.05 0.06 0.05 0.04 0.03 0.03 0.03 0.03 0.03 0.03 0.05 0.06 0.05 0.07 0.07
0.00 0.00 0.00 0.00 0.00 0.00 0.00 0.00 0.00 0.00 0.00 0.00 0.00 0.01 0.02 0.02 0.03 0.03 0.02 0.02 0.03 0.04 0.05 0.04 0.03 0.01 0.01 0.01 0.02 0.03 0.04 0.04 0.05 0.05 0.04 0.03 0.03 0.03 0.02 0.03 0.04 0.04 0.05 0.05
0.00 0.00 0.00 0.00 0.00 0.01 0.01 0.00 0.00 0.00 0.00 0.00 0.00 0.00 0.01 0.02 0.02 0.02 0.02 0.02 0.03 0.04 0.05 0.04 0.02 0.01 0.01 0.01 0.02 0.02 0.03 0.03 0.06 0.06 0.04 0.03 0.03 0.02 0.02 0.03 0.03 0.04 0.03 0.03
0.00 0.00 0.00 0.00 0.00 0.00 0.00 0.00 0.00 0.00 0.00 0.00 0.00 0.00 0.00 0.01 0.02 0.02 0.02 0.02 0.02 0.03 0.04 0.03 0.02 0.02 0.02 0.01 0.01 0.01 0.02 0.03 0.05 0.05 0.04 0.03 0.02 0.02 0.02 0.02 0.02 0.03 0.05 0.05
0.00 0.00 0.00 0.00 0.01 0.01 0.00 0.00 0.00 0.00 0.00 0.00 0.00 0.00 0.00 0.01 0.01 0.01 0.02 0.02 0.02 0.04 0.06 0.07 0.07 0.08 0.04 0.01 0.00 0.00 0.01 0.04 0.04 0.03 0.02 0.02 0.02 0.04 0.04 0.03 0.03 0.02 0.03 0.05
0.00 0.00 0.00 0.00 0.00 0.01 0.00 0.00 0.00 0.00 0.00 0.00 0.01 0.00 0.00 0.01 0.01 0.01 0.02 0.05 0.05 0.05 0.06 0.08 0.06 0.05 0.03 0.02 0.02 0.01 0.01 0.01 0.01 0.01 0.02 0.02 0.03 0.03 0.04 0.05 0.05 0.04 0.04 0.05
0.00 0.00 0.00 0.00 0.00 0.00 0.00 0.00 0.00 0.00 0.00 0.00 0.01 0.00 0.00 0.01 0.01 0.02 0.03 0.04 0.05 0.06 0.04 0.03 0.04 0.04 0.03 0.03 0.03 0.01 0.01 0.00 0.00 0.01 0.02 0.02 0.03 0.03 0.04 0.05 0.06 0.06 0.06 0.07
0.00 0.00 0.00 0.00 0.01 0.01 0.00 0.00 0.00 0.00 0.00 0.00 0.01 0.00 0.00 0.01 0.02 0.02 0.03 0.02 0.02 0.02 0.02 0.02 0.02 0.03 0.04 0.03 0.02 0.01 0.00 0.01 0.01 0.01 0.01 0.01 0.01 0.02 0.03 0.05 0.06 0.06 0.05 0.05
0.00 0.00 0.01 0.01 0.01 0.01 0.00 0.00 0.00 0.00 0.00 0.00 0.01 0.01 0.01 0.01 0.01 0.02 0.02 0.01 0.00 0.01 0.01 0.01 0.02 0.03 0.03 0.02 0.02 0.02 0.01 0.01 0.01 0.01 0.01 0.01 0.01 0.01 0.02 0.03 0.05 0.06 0.05 0.03
0.00 0.00 0.01 0.01 0.01 0.00 0.00 0.00 0.00 0.00 0.00 0.00 0.00 0.01 0.01 0.01 0.01 0.01 0.01 0.01 0.00 0.01 0.05 0.06 0.06 0.06 0.05 0.03 0.04 0.03 0.02 0.01 0.01 0.01 0.01 0.01 0.01 0.01 0.02 0.02 0.03 0.05 0.05 0.04
0.00 0.00 0.00 0.00 0.00 0.00 0.00 0.00 0.00 0.00 0.00 0.00 0.00 0.01 0.00 0.01 0.01 0.01 0.01 0.00 0.00 0.01 0.05 0.07 0.08 0.09 0.11 0.10 0.08 0.08 0.07 0.05 0.04 0.02 0.02 0.02 0.02 0.02 0.02 0.02 0.03 0.03 0.04 0.05
0.00 0.00 0.00 0.00 0.00 0.00 0.00 0.00 0.00 0.00 0.00 0.00 0.00 0.00 0.00 0.00 0.01 0.00 0.00 0.00 0.01 0.01 0.03 0.04 0.07 0.09 0.11 0.12 0.11 0.11 0.14 0.14 0.10 0.06 0.04 0.04 0.03 0.03 0.03 0.03 0.03 0.03 0.05 0.07
0.00 0.00 0.00 0.00 0.00 0.00 0.00 0.00 0.00 0.00 0.00 0.00 0.00 0.00 0.00 0.01 0.01 0.00 0.00 0.00 0.01 0.02 0.03 0.03 0.04 0.05 0.07 0.09 0.11 0.12 0.11 0.13 0.13 0.09 0.07 0.06 0.05 0.04 0.04 0.03 0.03 0.03 0.05 0.07
0.00 0.00 0.00 0.00 0.00 0.00 0.00 0.00 0.00 0.00 0.00 0.00 0.00 0.00 0.01 0.01 0.01 0.01 0.01 0.01 0.01 0.01 0.02 0.03 0.04 0.04 0.05 0.06 0.06 0.07 0.07 0.06 0.07 0.06 0.06 0.06 0.05 0.04 0.04 0.04 0.03 0.03 0.04 0.06
0.00 0.00 0.00 0.00 0.00 0.00 0.00 0.00 0.00 0.00 0.00 0.00 0.00 0.00 0.01 0.01 0.01 0.01 0.01 0.01 0.01 0.02 0.03 0.03 0.04 0.04 0.03 0.03 0.03 0.03 0.03 0.03 0.02 0.02 0.02 0.03 0.04 0.04 0.04 0.03 0.02 0.02 0.03 0.06
0.00 0.00 0.00 0.00 0.00 0.00 0.00 0.00 0.00 0.00 0.00 0.01 0.01 0.01 0.00 0.01 0.01 0.01 0.02 0.03 0.03 0.03 0.04 0.04 0.03 0.02 0.01 0.01 0.01 0.02 0.02 0.02 0.02 0.02 0.02 0.03 0.04 0.05 0.06 0.06 0.07 0.07 0.06 0.05
0.00 0.00 0.00 0.00 0.00 0.00 0.00 0.00 0.00 0.00 0.00 0.01 0.00 0.00 0.00 0.01 0.01 0.02 0.02 0.03 0.03 0.03 0.03 0.03 0.02 0.01 0.01 0.01 0.01 0.02 0.02 0.01 0.02 0.02 0.02 0.04 0.07 0.10 0.14 0.16 0.12 0.07 0.05 0.04
0.00 0.00 0.00 0.00 0.00 0.00 0.00 0.00 0.00 0.00 0.00 0.01 0.00 0.00 0.00 0.01 0.01 0.02 0.02 0.02 0.03 0.02 0.02 0.02 0.01 0.01 0.02 0.03 0.03 0.04 0.03 0.02 0.02 0.03 0.03 0.05 0.06 0.08 0.08 0.05 0.03 0.02 0.02 0.02
0.00 0.00 0.00 0.00 0.00 0.00 0.00 0.00 0.00 0.00 0.01 0.01 0.00 0.00 0.00 0.00 0.01 0.02 0.02 0.02 0.01 0.01 0.01 0.01 0.01 0.01 0.03 0.04 0.04 0.04 0.04 0.05 0.06 0.06 0.07 0.07 0.06 0.05 0.04 0.03 0.01 0.01 0.01 0.01
0.00 0.00 0.00 0.00 0.00 0.00 0.00 0.00 0.00 0.01 0.01 0.01 0.00 0.00 0.00 0.00 0.01 0.01 0.01 0.01 0.00 0.00 0.00 0.00 0.01 0.01 0.02 0.03 0.04 0.04 0.04 0.06 0.09 0.11 0.12 0.11 0.09 0.07 0.04 0.02 0.01 0.01 0.01 0.01
0.00 0.00 0.00 0.00 0.00 0.00 0.00 0.00 0.01 0.01 0.01 0.01 0.01 0.01 0.01 0.01 0.01 0.01 0.01 0.02 0.01 0.01 0.01 0.01 0.01 0.02 0.04 0.06 0.07 0.05 0.05 0.08 0.08 0.08 0.08 0.08 0.07 0.05 0.03 0.02 0.01 0.01 0.01 0.01
0.00 0.00 0.00 0.00 0.00 0.00 0.00 0.00 0.01 0.01 0.01 0.01 0.01 0.01 0.01 0.01 0.01 0.01 0.01 0.01 0.01 0.02 0.02 0.02 0.02 0.03 0.04 0.05 0.05 0.04 0.04 0.05 0.06 0.07 0.08 0.09 0.07 0.05 0.03 0.02 0.01 0.01 0.01 0.01
0.00 0.00 0.00 0.00 0.00 0.00 0.00 0.00 0.00 0.00 0.01 0.01 0.01 0.01 0.01 0.01 0.01 0.00 0.00 0.01 0.01 0.02 0.02 0.03 0.04 0.05 0.05 0.04 0.04 0.04 0.04 0.05 0.07 0.10 0.10 0.08 0.06 0.04 0.02 0.01 0.01 0.01 0.01 0.01
0.00 0.00 0.00 0.00 0.00 0.00 0.00 0.01 0.00 0.01 0.01 0.01 0.01 0.01 0.02 0.01 0.01 0.00 0.01 0.01 0.01 0.00 0.01 0.02 0.03 0.03 0.03 0.03 0.04 0.05 0.06 0.08 0.09 0.08 0.07 0.05 0.04 0.03 0.02 0.01 0.01 0.00 0.00 0.01
0.00 0.00 0.00 0.00 0.00 0.00 0.01 0.01 0.00 0.01 0.00 0.00 0.01 0.01 0.01 0.01 0.01 0.01 0.01 0.01 0.00 0.00 0.00 0.01 0.02 0.02 0.01 0.02 0.02 0.03 0.04 0.06 0.07 0.06 0.06 0.06 0.06 0.04 0.03 0.03 0.01 0.01 0.01 0.01
MSLP
1006.76 1007.39 1007.81 1008.03 1008.11 1008.14 1008.22 1008.42 1008.77 1009.26 1009.82 1010.38 1010.86 1011.19 1011.33 1011.30 1011.13 1010.89 1010.66 1010.50 1010.44 1010.51 1010.68 1010.92 1011.20 1011.48 1011.74 1011.98 1012.21 1012.45 1012.71 1012.99 1013.30 1013.60 1013.87 1014.08 1014.21 1014.24 1014.20 1014.11 1013.99 1013.89 1013.81 1013.78
1007.17 1007.64 1007.88 1007.94 1007.91 1007.90 1008.00 1008.28 1008.74 1009.35 1010.01 1010.63 1011.12 1011.40 1011.46 1011.31 1011.03 1010.69 1010.40 1010.21 1010.16 1010.26 1010.47 1010.75 1011.05 1011.33 1011.57 1011.77 1011.96 1012.16 1012.41 1012.71 1013.04 1013.39 1013.71 1013.95 1014.09 1014.12 1014.04 1013.89 1013.71 1013.55 1013.43 1013.39
1007.34 1007.60 1007.65 1007.57 1007.46 1007.45 1007.63 1008.04 1008.66 1009.42 1010.21 1010.89 1011.38 1011.60 1011.55 1011.26 1010.84 1010.38 1010.00 1009.77 1009.72 1009.85 1010.11 1010.44 1010.77 1011.06 1011.30 1011.48 1011.64 1011.81 1012.04 1012.34 1012.70 1013.08 1013.42 1013.69 1013.85 1013.87 1013.76 1013.56 1013.33 1013.11 1012.95 1012.87
1007.29 1007.34 1007.22 1007.02 1006.89 1006.93 1007.24 1007.83 1008.65 1009.60 1010.52 1011.28 1011.77 1011.91 1011.72 1011.27 1010.67 1010.06 1009.56 1009.26 1009.18 1009.32 1009.62 1010.00 1010.37 1010.68 1010.92 1011.09 1011.22 1011.37 1011.59 1011.88 1012.24 1012.63 1013.01 1013.30 1013.46 1013.48 1013.36 1013.13 1012.86 1012.60 1012.39 1012.28
1007.14 1006.99 1006.72 1006.45 1006.33 1006.48 1006.97 1007.78 1008.83 1009.97 1011.04 1011.87 1012.34 1012.40 1012.07 1011.43 1010.63 1009.84 1009.20 1008.79 1008.66 1008.78 1009.09 1009.49 1009.89 1010.22 1010.46 1010.61 1010.72 1010.85 1011.03 1011.30 1011.66 1012.05 1012.44 1012.75 1012.93 1012.96 1012.84 1012.61 1012.32 1012.03 1011.80 1011.66
1006.99 1006.67 1006.29 1006.00 1005.95 1006.24 1006.92 1007.97 1009.25 1010.58 1011.79 1012.67 1013.12 1013.09 1012.60 1011.77 1010.79 1009.81 1009.00 1008.47 1008.25 1008.32 1008.61 1009.00 1009.40 1009.73 1009.96 1010.10 1010.18 1010.26 1010.41 1010.64 1010.97 1011.35 1011.73 1012.04 1012.24 1012.29 1012.19 1011.97 1011.69 1011.40 1011.16 1011.00
1006.92 1006.49 1006.06 1005.79 1005.83 1006.27 1007.15 1008.40 1009.87 1011.37 1012.67 1013.60 1014.02 1013.89 1013.28 1012.29 1011.13 1009.99 1009.03 1008.38 1008.06 1008.06 1008.29 1008.65 1009.02 1009.32 1009.52 1009.61 1009.64 1009.67 1009.76 1009.93 1010.21 1010.55 1010.90 1011.21 1011.41 1011.47 1011.40 1011.20 1010.94 1010.66 1010.43 1010.28
1006.98 1006.49 1006.05 1005.83 1005.97 1006.56 1007.59 1008.99 1010.60 1012.19 1013.55 1014.48 1014.87 1014.68 1013.97 1012.88 1011.60 1010.35 1009.29 1008.54 1008.14 1008.06 1008.22 1008.52 1008.82 1009.07 1009.20 1009.23 1009.19 1009.14 1009.15 1009.24 1009.44 1009.71 1010.00 1010.27 1010.45 1010.50 1010.44 1010.26 1010.03 1009.78 1009.57 1009.43
1007.12 1006.64 1006.25 1006.10 1006.34 1007.02 1008.14 1009.61 1011.27 1012.88 1014.23 1015.13 1015.49 1015.26 1014.53 1013.41 1012.11 1010.84 1009.75 1008.95 1008.50 1008.35 1008.44 1008.65 1008.87 1009.03 1009.07 1009.01 1008.89 1008.75 1008.65 1008.64 1008.73 1008.89 1009.09 1009.27 1009.39 1009.41 1009.32 1009.14 1008.92 1008.69 1008.51 1008.39
1007.30 1006.89 1006.58 1006.52 1006.82 1007.55 1008.68 1010.13 1011.72 1013.26 1014.54 1015.40 1015.72 1015.50 1014.81 1013.76 1012.54 1011.34 1010.31 1009.55 1009.09 1008.91 1008.92 1009.04 1009.17 1009.22 1009.16 1009.00 1008.77 1008.53 1008.33 1008.19 1008.15 1008.18 1008.24 1008.30 1008.30 1008.23 1008.08 1007.87 1007.62 1007.40 1007.22 1007.12
1007.43 1007.15 1006.96 1006.99 1007.33 1008.04 1009.10 1010.43 1011.88 1013.26 1014.40 1015.17 1015.48 1015.31 1014.73 1013.84 1012.80 1011.79 1010.91 1010.25 1009.84 1009.65 1009.62 1009.66 1009.68 1009.62 1009.45 1009.19 1008.86 1008.52 1008.20 1007.94 1007.76 1007.63 1007.53 1007.42 1007.27 1007.07 1006.80 1006.50 1006.20 1005.94 1005.75 1005.64
1007.50 1007.39 1007.34 1007.46 1007.82 1008.47 1009.39 1010.51 1011.73 1012.89 1013.85 1014.52 1014.81 1014.72 1014.30 1013.64 1012.87 1012.11 1011.46 1010.96 1010.65 1010.49 1010.43 1010.39 1010.31 1010.14 1009.88 1009.52 1009.11 1008.68 1008.27 1007.90 1007.58 1007.30 1007.02 1006.73 1006.40 1006.02 1005.60 1005.18 1004.78 1004.45 1004.21 1004.07
1007.53 1007.61 1007.72 1007.93 1008.29 1008.84 1009.57 1010.45 1011.38 1012.27 1013.03 1013.57 1013.84 1013.85 1013.63 1013.24 1012.78 1012.31 1011.92 1011.62 1011.43 1011.31 1011.23 1011.12 1010.95 1010.70 1010.35 1009.93 1009.46 1008.98 1008.51 1008.06 1007.63 1007.21 1006.77 1006.30 1005.77 1005.21 1004.62 1004.05 1003.53 1003.10 1002.78 1002.58
1007.59 1007.88 1008.14 1008.43 1008.78 1009.21 1009.73 1010.33 1010.97 1011.57 1012.11 1012.52 1012.77 1012.88 1012.86 1012.74 1012.58 1012.41 1012.28 1012.17 1012.10 1012.03 1011.93 1011.77 1011.53 1011.20 1010.80 1010.34 1009.85 1009.35 1008.86 1008.38 1007.89 1007.36 1006.79 1006.16 1005.46 1004.72 1003.97 1003.25 1002.60 1002.07 1001.66 1001.40
1007.77 1008.25 1008.66 1009.01 1009.33 1009.64 1009.96 1010.29 1010.63 1010.96 1011.27 1011.55 1011.78 1011.97 1012.12 1012.24 1012.35 1012.45 1012.54 1012.60 1012.62 1012.59 1012.47 1012.25 1011.95 1011.58 1011.14 1010.68 1010.21 1009.75 1009.28 1008.81 1008.30 1007.72 1007.07 1006.33 1005.51 1004.63 1003.75 1002.90 1002.15 1001.52 1001.03 1000.69
1008.16 1008.78 1009.29 1009.68 1009.97 1010.15 1010.28 1010.36 1010.44 1010.52 1010.64 1010.79 1010.99 1011.23 1011.51 1011.82 1012.14 1012.44 1012.70 1012.89 1012.98 1012.95 1012.81 1012.55 1012.21 1011.80 1011.37 1010.94 1010.52 1010.12 1009.72 1009.29 1008.81 1008.24 1007.56 1006.77 1005.88 1004.93 1003.97 1003.06 1002.23 1001.54 1001.00 1000.60
1008.77 1009.46 1010.02 1010.41 1010.63 1010.70 1010.65 1010.53 1010.39 1010.27 1010.22 1010.27 1010.43 1010.70 1011.07 1011.51 1011.97 1012.41 1012.78 1013.03 1013.16 1013.13 1012.96 1012.67 1012.30 1011.90 1011.49 1011.11 1010.76 1010.45 1010.13 1009.79 1009.37 1008.85 1008.20 1007.41 1006.52 1005.56 1004.59 1003.67 1002.84 1002.13 1001.57 1001.14
1009.53 1010.21 1010.73 1011.07 1011.20 1011.16 1010.97 1010.68 1010.38 1010.11 1009.94 1009.91 1010.04 1010.33 1010.75 1011.26 1011.80 1012.32 1012.74 1013.04 1013.17 1013.14 1012.95 1012.65 1012.28 1011.89 1011.53 1011.21 1010.95 1010.73 1010.51 1010.26 1009.93 1009.48 1008.89 1008.16 1007.33 1006.42 1005.51 1004.64 1003.86 1003.20 1002.66 1002.24
1010.30 1010.88 1011.30 1011.52 1011.55 1011.38 1011.07 1010.68 1010.26 1009.91 1009.67 1009.59 1009.71 1010.00 1010.45 1011.00 1011.58 1012.13 1012.59 1012.90 1013.04 1013.01 1012.83 1012.55 1012.21 1011.86 1011.55 1011.31 1011.12 1010.98 1010.85 1010.68 1010.42 1010.05 1009.54 1008.91 1008.16 1007.36 1006.56 1005.79 1005.11 1004.54 1004.08 1003.70
1010.94 1011.33 1011.57 1011.64 1011.53 1011.25 1010.85 1010.38 1009.91 1009.52 1009.27 1009.19 1009.31 1009.62 1010.09 1010.66 1011.27 1011.84 1012.31 1012.64 1012.80 1012.80 1012.66 1012.42 1012.13 1011.85 1011.61 1011.42 1011.30 1011.22 1011.15 1011.03 1010.84 1010.53 1010.10 1009.56 1008.93 1008.26 1007.59 1006.96 1006.41 1005.96 1005.59 1005.29
1011.28 1011.44 1011.47 1011.35 1011.09 1010.71 1010.24 1009.74 1009.27 1008.90 1008.67 1008.63 1008.79 1009.13 1009.62 1010.21 1010.84 1011.42 1011.92 1012.28 1012.49 1012.55 1012.47 1012.31 1012.10 1011.89 1011.71 1011.58 1011.51 1011.46 1011.40 1011.31 1011.15 1010.89 1010.52 1010.07 1009.55 1009.01 1008.48 1008.00 1007.59 1007.26 1007.00 1006.79
1011.28 1011.17 1010.97 1010.67 1010.27 1009.80 1009.29 1008.80 1008.38 1008.07 1007.91 1007.93 1008.15 1008.53 1009.06 1009.67 1010.31 1010.93 1011.45 1011.87 1012.14 1012.28 1012.29 1012.22 1012.11 1011.98 1011.87 1011.78 1011.73 1011.68 1011.62 1011.52 1011.36 1011.11 1010.80 1010.41 1009.99 1009.57 1009.17 1008.82 1008.54 1008.32 1008.16 1008.02
1010.93 1010.58 1010.17 1009.70 1009.18 1008.66 1008.15 1007.70 1007.35 1007.13 1007.07 1007.18 1007.47 1007.91 1008.47 1009.10 1009.77 1010.40 1010.97 1011.44 1011.79 1012.01 1012.14 1012.17 1012.15 1012.11 1012.05 1012.00 1011.94 1011.88 1011.79 1011.66 1011.48 1011.23 1010.94 1010.61 1010.26 1009.93 1009.64 1009.39 1009.21 1009.08 1008.99 1008.90
1010.34 1009.80 1009.21 1008.62 1008.03 1007.48 1007.01 1006.63 1006.37 1006.26 1006.30 1006.51 1006.86 1007.35 1007.94 1008.60 1009.27 1009.93 1010.53 1011.04 1011.46 1011.78 1012.00 1012.13 1012.21 1012.23 1012.22 1012.18 1012.12 1012.03 1011.90 1011.73 1011.52 1011.27 1010.99 1010.70 1010.41 1010.15 1009.93 1009.76 1009.64 1009.56 1009.50 1009.43
1009.66 1008.98 1008.29 1007.62 1007.00 1006.47 1006.04 1005.74 1005.59 1005.58 1005.73 1006.01 1006.43 1006.96 1007.56 1008.22 1008.89 1009.55 1010.17 1010.72 1011.19 1011.57 1011.87 1012.08 1012.22 1012.30 1012.32 1012.30 1012.22 1012.11 1011.95 1011.75 1011.51 1011.26 1010.99 1010.73 1010.48 1010.27 1010.10 1009.97 1009.88 1009.81 1009.75 1009.68
1009.05 1008.29 1007.55 1006.85 1006.24 1005.75 1005.38 1005.17 1005.11 1005.19 1005.42 1005.77 1006.22 1006.76 1007.36 1008.01 1008.66 1009.30 1009.91 1010.47 1010.97 1011.39 1011.73 1012.00 1012.18 1012.30 1012.34 1012.32 1012.24 1012.11 1011.93 1011.71 1011.48 1011.23 1010.98 1010.75 1010.54 1010.36 1010.22 1010.11 1010.02 1009.93 1009.84 1009.74
Thickness
5816 5801 5790 5795 5799 5801 5795 5786 5781 5789 5802 5793 5784 5783 5789 5795 5793 5791 5791 5791 5792 5793 5797 5796 5795 5794 5791 5788 5785 5784 5781 5780 5778 5775 5772 5770 5768 5768 5768 5767 5766 5765 5764 5762
5799 5794 5809 5814 5809 5803 5795 5785 5782 5790 5801 5792 5781 5782 5790 5793 5793 5794 5793 5793 5793 5793 5793 5793 5793 5792 5789 5786 5784 5783 5780 5778 5777 5775 5773 5771 5769 5767 5766 5766 5765 5764 5763 5761
5796 5805 5819 5812 5804 5798 5794 5787 5786 5785 5790 5790 5782 5774 5782 5791 5795 5796 5797 5797 5795 5794 5791 5791 5790 5789 5788 5785 5783 5782 5779 5777 5776 5774 5772 5770 5767 5765 5763 5762 5762 5762 5761 5760
5801 5814 5816 5809 5804 5802 5788 5804 5799 5791 5775 5763 5772 5750 5772 5780 5785 5791 5793 5794 5794 5795 5794 5791 5790 5788 5786 5786 5784 5781 5778 5776 5775 5773 5770 5766 5763 5759 5760 5760 5760 5760 5759 5758
5801 5813 5811 5805 5809 5810 5802 5810 5800 5789 5773 5760 5763 5752 5761 5775 5776 5784 5791 5794 5796 5796 5795 5793 5792 5789 5787 5786 5783 5779 5776 5774 5773 5771 5769 5765 5762 5760 5760 5759 5757 5757 5757 5756
5807 5820 5819 5816 5820 5818 5812 5799 5786 5773 5762 5745 5756 5750 5753 5767 5777 5785 5791 5794 5796 5796 5795 5793 5792 5790 5787 5785 5782 5778 5775 5772 5771 5769 5767 5764 5761 5758 5757 5756 5754 5754 5753 5753
5794 5808 5819 5823 5809 5809 5802 5776 5751 5746 5735 5739 5756 5751 5756 5781 5789 5791 5792 5794 5796 5796 5794 5792 5789 5787 5784 5782 5780 5777 5773 5770 5769 5767 5765 5763 5761 5758 5755 5754 5753 5751 5750 5749
5774 5777 5807 5816 5809 5797 5791 5779 5750 5737 5730 5737 5751 5749 5767 5789 5794 5796 5796 5795 5796 5794 5792 5790 5789 5786 5784 5782 5779 5776 5772 5769 5768 5766 5764 5762 5760 5757 5755 5753 5751 5749 5748 5748
5772 5777 5809 5816 5817 5807 5787 5774 5773 5748 5740 5734 5741 5755 5774 5788 5788 5789 5789 5790 5791 5791 5790 5788 5787 5785 5782 5780 5777 5775 5772 5769 5767 5765 5762 5760 5758 5755 5753 5752 5750 5748 5747 5746
5788 5778 5796 5808 5812 5803 5796 5777 5758 5744 5729 5726 5739 5746 5753 5771 5776 5781 5783 5784 5784 5786 5785 5784 5783 5782 5781 5779 5776 5773 5771 5768 5766 5763 5760 5758 5755 5753 5751 5749 5747 5745 5744 5743
5790 5774 5779 5789 5786 5783 5783 5772 5754 5739 5739 5725 5723 5741 5777 5777 5779 5779 5781 5782 5782 5781 5781 5780 5779 5779 5777 5775 5772 5769 5767 5765 5762 5760 5758 5755 5752 5750 5748 5745 5743 5741 5740 5738
5781 5766 5758 5773 5790 5795 5788 5776 5759 5747 5736 5730 5726 5742 5786 5784 5783 5781 5780 5780 5779 5779 5778 5777 5775 5773 5771 5768 5766 5764 5762 5760 5758 5756 5754 5751 5749 5746 5743 5740 5738 5737 5735 5733
5778 5760 5744 5750 5763 5777 5775 5772 5762 5749 5734 5724 5726 5746 5781 5780 5778 5778 5777 5776 5775 5774 5773 5772 5770 5767 5765 5763 5761 5759 5758 5756 5754 5751 5748 5745 5743 5740 5738 5736 5733 5731 5730 5727
5782 5756 5747 5741 5749 5763 5765 5766 5762 5752 5735 5730 5737 5750 5766 5770 5770 5772 5772 5772 5771 5769 5768 5765 5763 5762 5760 5758 5756 5754 5752 5751 5749 5745 5742 5738 5737 5735 5733 5730 5728 5726 5723 5721
5775 5753 5756 5758 5765 5766 5764 5763 5761 5756 5749 5742 5748 5749 5760 5766 5768 5769 5769 5767 5765 5763 5762 5760 5758 5757 5755 5752 5750 5749 5747 5746 5743 5739 5736 5734 5732 5730 5727 5724 5722 5719 5717 5715
5759 5751 5751 5751 5759 5760 5756 5758 5758 5756 5753 5749 5750 5751 5764 5766 5766 5764 5763 5761 5759 5758 5758 5757 5754 5752 5750 5748 5746 5744 5742 5740 5736 5733 5731 5729 5726 5723 5721 5718 5715 5712 5710 5709
5743 5742 5734 5731 5744 5749 5736 5748 5750 5751 5752 5749 5744 5751 5759 5758 5758 5758 5757 5756 5754 5754 5753 5751 5749 5748 5745 5743 5742 5738 5736 5733 5730 5727 5725 5722 5719 5717 5714 5712 5709 5706 5704 5701
5738 5728 5718 5718 5728 5716 5736 5756 5755 5750 5750 5751 5751 5752 5753 5753 5755 5756 5756 5753 5750 5749 5748 5747 5744 5743 5742 5739 5737 5734 5731 5727 5724 5721 5718 5716 5713 5711 5708 5705 5702 5700 5698 5695
5737 5727 5711 5705 5708 5716 5736 5747 5746 5741 5740 5747 5745 5747 5748 5749 5748 5747 5751 5750 5748 5746 5745 5743 5741 5738 5736 5734 5731 5727 5724 5721 5717 5714 5712 5710 5708 5704 5701 5698 5695 5693 5691 5688
5725 5722 5709 5701 5704 5702 5725 5746 5750 5740 5727 5742 5741 5739 5739 5739 5727 5733 5744 5744 5742 5740 5738 5737 5735 5732 5729 5728 5725 5721 5718 5714 5712 5710 5706 5704 5702 5698 5695 5692 5690 5687 5685 5682
5711 5705 5700 5696 5699 5707 5730 5741 5742 5716 5719 5737 5736 5734 5732 5729 5729 5734 5737 5735 5735 5733 5731 5730 5727 5724 5722 5721 5718 5714 5711 5709 5708 5705 5701 5698 5696 5693 5689 5686 5683 5680 5678 5675
5700 5696 5692 5687 5691 5700 5731 5731 5723 5722 5731 5733 5732 5731 5728 5727 5728 5729 5728 5727 5726 5724 5723 5721 5718 5716 5716 5714 5711 5707 5705 5705 5702 5699 5696 5692 5690 5687 5684 5679 5676 5673 5670 5667
5695 5698 5694 5695 5700 5715 5722 5725 5729 5728 5726 5727 5727 5727 5725 5722 5720 5720 5719 5718 5718 5717 5715 5714 5711 5709 5707 5706 5704 5701 5700 5698 5695 5692 5689 5686 5684 5680 5676 5673 5670 5667 5663 5660
5695 5696 5693 5694 5704 5712 5718 5721 5723 5724 5723 5723 5723 5721 5719 5715 5714 5712 5710 5709 5708 5708 5706 5705 5703 5700 5698 5697 5696 5695 5694 5692 5688 5684 5682 5679 5676 5673 5670 5667 5664 5661 5657 5654
5690 5689 5685 5687 5698 5705 5712 5714 5715 5717 5717 5716 5715 5714 5712 5709 5706 5704 5702 5701 5700 5699 5698 5696 5694 5692 5691 5690 5688 5687 5686 5684 5680 5677 5674 5672 5669 5665 5662 5660 5657 5654 5652 5650
5682 5682 5680 5683 5693 5693 5699 5707 5709 5708 5708 5708 5706 5704 5703 5701 5698 5696 5694 5692 5691 5690 5689 5687 5686 5685 5684 5682 5681 5680 5678 5676 5673 5669 5667 5664 5660 5657 5654 5651 5649 5647 5645 5643